[TLELIST] Archives

 

[list_settings.list_name] Current TLEs

March 31st 2012 PDT

HST 1 20580U 90037B 12091.00565454 .00001958 00000-0 13215-3 0 9725 2 20580 028.4713 295.1002 0003211 305.7081 054.3508 15.02323500 2965 ISS (ZARYA) 1 25544U 98067A 12091.42420881 .00013956 00000-0 17595-3 0 2797 2 25544 051.6414 151.7698 0015371 217.3375 256.6043 15.59779457765895 CXO 1 25867U 99040B 12092.25000000 .00000361 00000-0 00000+0 0 7189 2 25867 071.8214 010.4533 8748634 277.9701 000.6925 00.37805002 8861 ____________________________________________________________________ These 2-Line ...Continue Reading

[list_settings.list_name] Current TLEs

March 30th 2012 PDT

HST 1 20580U 90037B 12088.01616448 .00001490 00000-0 97603-4 0 9716 2 20580 028.4720 314.6585 0003010 268.6534 091.3672 15.02311953 2516 ISS (ZARYA) 1 25544U 98067A 12090.07079678 .00019120 00000-0 23880-3 0 2727 2 25544 051.6415 158.5711 0015263 212.7181 216.5781 15.59748549765680 CXO 1 25867U 99040B 12 86.98594767 .00000177 00000-0 10000-3 0 7179 2 25867 071.7662 010.9116 8747616 277.9391 004.1357 00.37802644 8859 ____________________________________________________________________ These 2-Line ...Continue Reading

[list_settings.list_name] Current TLEs

March 29th 2012 PDT

HST 1 20580U 90037B 12088.01616448 .00001490 00000-0 97603-4 0 9716 2 20580 028.4720 314.6585 0003010 268.6534 091.3672 15.02311953 2516 ISS (ZARYA) 1 25544U 98067A 12089.43708883 .00018764 00000-0 23470-3 0 2708 2 25544 051.6413 161.7575 0015379 210.4483 258.1726 15.59722348765589 CXO 1 25867U 99040B 12 86.98594767 .00000177 00000-0 10000-3 0 7179 2 25867 071.7662 010.9116 8747616 277.9391 004.1357 00.37802644 8859 ____________________________________________________________________ These 2-Line ...Continue Reading

[list_settings.list_name] Current TLEs

March 28th 2012 PDT

HST 1 20580U 90037B 12088.01616448 .00001490 00000-0 97603-4 0 9716 2 20580 028.4720 314.6585 0003010 268.6534 091.3672 15.02311953 2516 ISS (ZARYA) 1 25544U 98067A 12088.47274708 .00022426 00000-0 27950-3 0 2634 2 25544 051.6410 166.6056 0015300 206.1814 244.1096 15.59688339765438 CXO 1 25867U 99040B 12086.95833333 .00000027 00000-0 00000+0 0 7169 2 25867 071.7771 010.8919 8746638 277.9624 000.1900 00.37800963 8843 ____________________________________________________________________ These 2-Line ...Continue Reading

[list_settings.list_name] Current TLEs

March 27th 2012 PDT

HST 1 20580U 90037B 12087.01966442 .00001524 00000-0 10014-3 0 9704 2 20580 028.4708 321.1744 0003462 260.3299 099.6880 15.02308959 2367 ISS (ZARYA) 1 25544U 98067A 12087.38303256 .00015671 00000-0 19775-3 0 2566 2 25544 051.6410 172.0860 0015594 203.4403 244.2603 15.59638255765269 CXO 1 25867U 99040B 12086.95833333 .00000027 00000-0 00000+0 0 7169 2 25867 071.7771 010.8919 8746638 277.9624 000.1900 00.37800963 8843 ____________________________________________________________________ These 2-Line ...Continue Reading

[list_settings.list_name] Current TLEs

March 26th 2012 PDT

HST 1 20580U 90037B 12086.02316648 .00001639 00000-0 10864-3 0 9699 2 20580 028.4711 327.6923 0003493 249.5885 110.4491 15.02306663 2219 ISS (ZARYA) 1 25544U 98067A 12086.41347047 .00021260 00000-0 26601-3 0 2506 2 25544 051.6425 176.9558 0015787 198.2668 202.0744 15.59613145765113 CXO 1 25867U 99040B 12086.95833333 .00000027 00000-0 00000+0 0 7169 2 25867 071.7771 010.8919 8746638 277.9624 000.1900 00.37800963 8843 ____________________________________________________________________ These 2-Line ...Continue Reading

[list_settings.list_name] Current TLEs

March 25th 2012 PDT

HST 1 20580U 90037B 12084.09659130 .00001510 00000-0 99150-4 0 9683 2 20580 028.4725 340.2934 0003053 228.9366 131.0912 15.02300713 1928 ISS (ZARYA) 1 25544U 98067A 12085.20387446 .00017924 00000-0 22587-3 0 2432 2 25544 051.6423 183.0335 0016084 193.8608 250.6436 15.59550052764921 CXO 1 25867U 99040B 12084.33333333 -.00000029 00000-0 00000+0 0 7156 2 25867 071.7551 011.0752 8748646 277.9896 002.7413 00.37803447 8835 ____________________________________________________________________ These 2-Line ...Continue Reading

[list_settings.list_name] Current TLEs

March 24th 2012 PDT

HST 1 20580U 90037B 12084.09659130 .00001510 00000-0 99150-4 0 9683 2 20580 028.4725 340.2934 0003053 228.9366 131.0912 15.02300713 1928 ISS (ZARYA) 1 25544U 98067A 12084.36960881 .00017046 00000-0 21540-3 0 2396 2 25544 051.6417 187.2256 0016229 191.0471 246.4922 15.59515779764796 CXO 1 25867U 99040B 12084.33333333 -.00000029 00000-0 00000+0 0 7156 2 25867 071.7551 011.0752 8748646 277.9896 002.7413 00.37803447 8835 ____________________________________________________________________ These 2-Line ...Continue Reading

[list_settings.list_name] Current TLEs

March 23rd 2012 PDT

HST 1 20580U 90037B 12082.17000933 .00001521 00000-0 99939-4 0 9677 2 20580 028.4714 352.8983 0003513 209.0182 151.0101 15.02295563 1632 ISS (ZARYA) 1 25544U 98067A 12083.34978433 .00015873 00000-0 20133-3 0 2332 2 25544 051.6419 192.3514 0016391 186.9169 281.3096 15.59475529764630 CXO 1 25867U 99040B 12081.66666667 .00000048 00000-0 00000+0 0 7147 2 25867 071.7317 011.2753 8751158 277.9823 359.7463 00.37806395 8824 ____________________________________________________________________ These 2-Line ...Continue Reading

[list_settings.list_name] Current TLEs

March 22nd 2012 PDT

HST 1 20580U 90037B 12082.17000933 .00001521 00000-0 99939-4 0 9677 2 20580 028.4714 352.8983 0003513 209.0182 151.0101 15.02295563 1632 ISS (ZARYA) 1 25544U 98067A 12082.38137503 .00014968 00000-0 19051-3 0 2296 2 25544 051.6410 197.2161 0016368 183.6712 244.2188 15.59439750764484 CXO 1 25867U 99040B 12081.66666667 .00000048 00000-0 00000+0 0 7147 2 25867 071.7317 011.2753 8751158 277.9823 359.7463 00.37806395 8824 ____________________________________________________________________ These 2-Line ...Continue Reading
  • This mailing list is a public mailing list - anyone may join or leave, at any time.
  • This mailing list is announce-only.

International Space Station (ISS) / Hubble Space Telescope (HST) / Chandra X-Ray Observatory Orbital Data via EMAIL

Privacy Policy:

Private list